SCP
0 0 0 0 0 0 0 0 0 0 0 0 0 0 0 0 0 0 0 0 0 0 0 0 0 0 0 0 0 0 0 0 0 0 0 0 0 0 0 -0 -0 -0 0
0 0 0 0 0 0 0 0 0 0 0 0 0 0 0 0 0 0 0 0 0 0 0 0 0 0 0 0 0 0 0 0 0 0 0 0 0 0 0 -0 -0 -0 -0
0 0 0 0 0 0 0 0 0 0 0 0 0 0 0 0 0 0 0 0 0 0 0 0 0 0 0 0 0 0 0 0 0 0 0 0 0 0 0 0 0 -0 -0
0 0 0 0 0 0 0 0 0 0 0 0 0 0 0 0 0 0 0 0 0 0 0 0 0 0 0 0 0 0 0 0 0 0 0 0 0 0 0 0 0 0 -0
0 0 0 0 0 0 0 0 0 0 0 0 0 -0 0 0 0 0 0 0 0 0 0 0 0 0 0 0 0 0 0 0 0 0 0 0 0 0 0 0 0 0 0
0 0 0 0 0 0 0 0 0 0 0 0 0 0 0 0 0 0 0 0 0 0 0 0 0 0 0 0 0 0 0 0 0 0 0 0 0 0 0 0 0 0 0
0 0 0 0 0 0 0 0 0 0 0 0 0 0 0 0 0 0 0 0 0 0 0 0 0 0 0 0 0 0 0 0 0 0 0 0 0 0 0 0 0 0 0
0 0 0 0 0 0 0 0 0 0 0 0 0 0 0 0 0 0 0 0 0 0 0 0 0 0 0 0 0 0 0 0 0 0 0 0 0 0 0 0 0 0 0
0 0 0 0 0 0 0 0 0 0 0 0 0 0 0 0 0 0 0 0 0 0 0 0 0 0 0 0 0 0 0 0 0 0 0 0 0 0 0 0 0 0 0
0 0 0 0 0 0 0 0 0 0 0 0 0 0 0 0 0 0 0 0 0 0 0 0 0 0 0 0 0 0 0 0 0 0 0 0 0 0 0 0 0 0 0
0 0 0 0 0 0 0 0 0 0 0 0 0 0 0 0 0 0 0 0 0 0 0 0 0 0 0 0 0 0 0 0 0 0 0 0 0 0 0 0 0 0 0
0 0 0 0 0 0 0 0 0 0 0 0 0 0 0 0 0 0 0 0 0 0 0 0 0 0 0 0 0 0 0 0 0 0 0 0 0 0 0 0 0 0 0
0 0 0 0 0 0 0 0 0 0 0 0 0 0 0 0 0 0 0 0 0 0 0 0 0 0 0 0 0 0 0 0 0 0 0 0 0 0 0 0 0 0 0
0 0 0 0 0 0 0 0 0 0 0 0 0 0 0 0 0 0 0 0 0 0 0 0 0 0 0 0 0 0 0 0 0 0 0 0 0 0 0 0 0 0 0
0 0 0 0 0 0 0 0 0 0 0 0 0 0 0 0 0 0 0 0 0 0 0 0 0 0 0 0 0 0 0 0 0 0 0 0 0 0 0 0 0 0 0
0 0 0 0 0 0 0 0 0 0 0 0 0 0 0 0 0 0 0 0 0 0 0 0 0 0 0 0 0 0 0 0 0 0 0 0 0 0 0 0 0 0 0
0 0 0 0 0 0 0 0 0 0 0 0 0 0 0 0 0 0 0 0 0 0 0 0 0 0 0 0 0 0 0 0 0 0 0 0 0 0 0 0 0 0 0
0 0 0 0 0 0 0 0 0 0 0 0 0 0 0 0 0 0 0 0 0 0 0 0 0 0 0 0 0 0 0 0 0 0 0 0 0 0 0 0 0 0 0
0 0 0 0 0 0 0 0 0 0 0 0 0 0 0 0 0 0 0 0 0 0 0 0 0 0 0 0 0 0 0 0 0 0 0 0 0 0 0 0 0 0 0
0 0 0 0 0 0 0 0 0 0 0 0 0 0 0 0 0 0 0 0 0 0 0 0 0 0 0 0 0 0 0 0 0 0 0 0 0 0 0 0 0 0 0
0 0 0 0 0 0 0 0 0 0 0 0 0 0 0 0 0 0 0 0 0 0 0 0 0 0 0 0 0 0 0 0 0 0 0 0 0 0 0 0 0 0 0
0 0 0 0 0 0 0 0 0 0 0 0 0 0 0 0 0 0 0 0 0 0 0 0 0 0 0 0 0 0 0 0 0 0 0 0 0 0 0 0 0 0 0
0 0 0 0 0 0 0 0 0 0 0 0 0 0 0 0 0 0 0 0 0 0 0 0 0 0 0 0 0 0 0 0 0 0 0 0 0 0 0 0 0 0 0
0 0 0 0 0 0 0 0 0 0 0 0 0 0 0 0 0 0 0 0 0 0 0 0 0 0 0 0 0 0 0 0 0 0 0 0 0 0 0 0 0 0 0
0 0 0 0 0 1 0 0 0 0 0 0 0 0 0 0 0 0 0 0 0 0 0 0 0 0 0 0 0 0 0 0 0 0 0 0 0 0 0 0 0 0 0
0 0 0 0 1 1 1 0 0 0 0 0 0 0 0 0 0 0 0 0 0 0 0 0 1 1 0 0 0 0 0 0 0 0 0 0 0 0 0 0 0 0 0
Wind_Speed
5 7 10 7 8 8 8 8 8 9 10 10 10 11 12 12 11 12 12 11 11 11 10 10 11 11 11 10 9 9 9 9 9 9 9 9 9 9 8 8 7 8 12
6 8 10 7 7 8 8 8 8 9 10 10 10 10 11 12 12 12 11 11 10 10 10 10 10 10 10 9 9 8 8 8 8 8 8 9 9 8 7 6 2 7 10
7 8 9 8 7 8 8 7 8 9 9 10 9 10 10 11 11 11 11 10 10 10 9 9 9 9 9 8 8 8 8 8 7 7 7 7 9 9 7 6 6 8 8
7 8 9 9 8 8 7 7 8 8 9 9 9 9 9 10 10 11 11 10 10 9 9 9 9 9 8 8 7 7 7 7 7 7 6 5 6 10 7 6 7 7 7
8 8 11 9 8 8 8 7 8 8 8 8 8 9 9 10 10 10 10 10 9 8 8 8 8 7 7 7 7 6 6 6 7 8 3 4 4 9 7 6 6 7 7
8 9 12 9 9 9 8 7 7 8 8 8 8 8 9 9 9 9 9 9 9 8 7 7 6 7 7 6 6 6 6 6 8 5 4 4 4 8 7 6 6 7 7
8 9 11 10 9 8 8 8 7 7 7 7 7 8 8 8 8 8 8 8 8 7 6 6 6 6 6 6 6 5 5 5 5 3 4 4 5 7 7 6 6 6 6
8 9 11 11 9 8 8 8 7 7 7 7 7 7 7 7 6 7 7 7 6 6 5 5 5 5 5 5 6 6 6 7 5 4 4 4 8 7 7 6 6 6 6
7 8 8 9 9 9 8 7 7 7 6 6 7 7 7 6 6 6 7 7 6 6 5 5 5 5 5 5 5 6 6 7 6 3 4 3 8 7 7 6 7 7 7
6 7 7 6 7 6 8 8 7 6 6 5 6 6 6 6 6 6 7 6 5 5 5 4 4 4 5 6 6 6 7 8 7 4 3 6 8 6 7 7 7 7 7
6 6 6 6 6 5 5 8 7 7 6 5 6 6 4 4 5 5 5 5 5 4 4 4 4 4 6 8 9 8 8 5 4 3 2 7 7 7 7 7 7 7 7
7 6 5 4 5 4 4 5 3 3 4 2 2 3 2 2 1 2 6 4 4 4 5 5 5 7 8 5 8 11 5 5 4 3 3 9 7 8 8 7 7 6 7
6 5 5 5 4 3 3 3 2 2 2 2 3 1 1 0 1 1 1 3 3 5 3 5 6 4 3 2 2 3 3 4 3 2 4 8 7 8 8 8 8 8 8
6 5 4 4 4 2 2 2 2 1 2 1 2 0 0 0 0 1 0 0 1 1 1 2 2 2 2 3 3 3 4 3 2 2 4 7 6 7 8 8 8 9 8
5 5 4 4 3 3 2 1 2 1 1 2 1 1 0 0 0 0 0 0 1 1 2 2 2 2 3 4 3 3 4 3 3 2 3 8 7 7 7 7 7 8 9
5 5 4 4 4 3 3 2 1 1 1 0 1 1 0 1 1 1 1 1 1 1 1 1 2 2 2 2 3 3 4 3 3 3 3 6 8 7 7 7 7 8 8
6 5 4 5 5 4 3 2 2 2 2 1 1 1 0 1 1 1 1 1 1 1 1 2 2 2 2 2 3 3 3 3 2 3 3 3 5 8 8 7 7 8 8
6 6 4 3 4 4 3 2 2 1 1 1 1 1 0 0 1 2 1 1 2 1 1 1 2 1 1 1 2 2 2 2 3 3 3 3 3 4 7 8 7 7 8
6 5 5 4 4 4 4 3 2 1 1 1 1 1 0 1 1 1 1 1 2 1 1 2 0 1 1 1 2 2 2 2 2 3 3 3 3 3 3 6 8 7 7
7 6 6 5 5 4 4 3 2 1 1 1 1 0 1 1 1 2 1 1 2 1 1 1 1 1 2 2 2 1 2 2 2 2 3 2 2 3 2 2 4 6 8
8 7 7 6 5 4 3 3 3 2 2 1 1 1 1 1 0 1 1 0 1 1 2 2 2 2 1 1 2 2 2 2 2 2 2 2 2 2 2 3 3 2 3
9 8 8 7 6 6 4 3 2 2 2 1 1 1 1 1 1 1 1 2 1 1 1 2 2 3 1 0 2 2 2 3 3 2 2 3 2 2 2 3 2 3 4
9 9 7 7 7 6 5 4 3 3 3 2 2 1 1 1 1 2 2 2 2 2 1 2 2 2 2 0 1 2 2 2 1 2 2 2 2 2 3 2 4 4 4
9 8 8 8 7 7 6 5 5 3 3 2 2 1 1 1 1 2 2 2 3 2 1 3 1 2 3 2 1 1 2 3 3 2 2 2 3 3 3 3 3 3 4
8 8 8 8 7 7 6 6 6 4 3 2 2 1 2 1 2 2 2 2 2 2 2 3 2 3 2 2 2 1 1 2 3 3 3 3 3 3 3 3 2 2 3
7 7 8 9 8 8 7 6 6 4 3 2 2 1 2 2 2 2 2 2 3 2 2 2 3 3 2 3 2 2 2 2 2 3 4 4 3 2 2 2 3 2 3
Wind_Direction
112 114 115 120 120 119 119 120 121 127 131 133 136 140 144 145 145 143 140 137 135 132 130 127 126 126 125 125 124 124 124 124 124 125 126 127 128 127 127 134 153 127 114
119 118 120 123 123 120 120 121 121 125 128 130 132 138 144 147 147 146 143 140 138 135 132 130 129 129 130 129 128 128 132 133 134 136 139 142 138 134 134 137 122 102 124
124 124 130 123 122 119 118 120 120 120 124 127 132 138 141 145 147 147 144 142 139 136 135 133 131 131 132 133 132 134 138 143 142 151 173 163 141 141 140 140 128 126 135
118 127 125 123 123 118 117 118 119 120 123 127 134 140 141 143 146 147 144 144 141 138 138 139 137 137 140 140 142 143 146 151 159 185 194 149 138 134 148 150 149 146 146
110 117 115 124 122 121 120 120 119 121 123 128 137 141 141 139 140 147 146 146 144 141 139 141 143 145 146 147 148 149 153 164 188 213 167 139 130 134 155 162 163 161 158
112 116 115 123 119 121 121 119 120 122 125 129 136 141 141 140 142 145 145 144 143 145 147 148 148 153 153 154 155 160 169 186 212 187 155 162 145 144 165 173 171 171 170
109 108 115 120 119 123 123 120 120 124 126 126 127 137 144 145 145 146 147 149 150 153 157 158 157 159 164 166 169 174 185 217 226 181 167 171 140 148 174 180 176 175 180
107 108 113 120 118 118 121 121 121 122 122 121 122 127 131 141 149 151 153 155 159 163 167 170 168 171 174 178 184 188 198 232 212 193 185 163 132 161 184 186 181 182 186
109 112 117 128 133 130 124 122 121 121 121 123 127 129 129 133 143 160 162 161 164 169 179 183 180 182 185 186 191 197 208 238 240 197 193 155 136 171 189 189 188 190 190
113 114 117 121 122 137 138 131 126 124 123 123 129 130 138 147 149 154 170 161 170 178 186 187 184 186 188 192 193 196 209 233 229 201 193 134 148 183 197 196 193 193 194
124 122 120 122 125 130 131 129 141 142 137 149 147 144 170 165 146 158 133 145 175 181 187 192 194 196 203 193 191 198 215 224 219 218 199 126 163 193 201 198 192 192 196
134 131 127 127 126 129 126 128 141 147 136 151 114 141 155 120 129 127 126 161 180 186 193 196 202 205 220 197 183 199 218 219 227 214 151 142 177 197 201 196 196 197 197
136 132 134 128 123 122 129 130 128 130 126 137 113 121 86 85 139 139 151 168 180 192 194 181 202 214 217 213 221 215 231 238 224 221 143 151 182 198 201 196 199 201 197
140 141 139 130 130 129 110 126 142 138 136 127 115 167 136 119 355 64 298 276 204 196 192 215 210 223 233 225 227 231 230 233 223 214 148 161 186 201 203 200 200 202 200
149 150 145 141 138 141 146 199 150 134 121 123 100 121 245 231 278 8 288 269 252 232 213 221 225 223 229 221 222 224 237 242 247 231 162 168 186 200 206 204 202 206 203
160 158 150 156 155 158 165 180 172 166 143 153 156 113 316 331 7 337 287 279 273 252 274 260 251 242 241 239 229 224 236 233 232 236 208 174 181 189 199 205 208 211 211
164 163 164 165 161 168 183 189 183 181 154 156 136 107 84 321 2 313 320 291 330 324 263 246 251 247 235 238 244 232 225 238 226 237 227 208 182 181 191 204 214 217 215
167 162 168 173 166 170 180 194 194 182 150 158 135 115 138 323 296 293 318 339 346 308 286 248 239 246 255 259 246 244 214 204 215 224 221 213 218 202 186 194 210 218 217
174 170 171 177 176 176 173 185 195 178 184 182 151 120 107 282 297 283 335 8 293 291 288 275 42 285 268 274 242 228 229 211 216 214 218 219 218 227 219 182 200 211 216
176 178 177 175 176 182 177 178 193 186 184 187 164 89 284 272 290 291 254 308 295 320 304 322 297 282 278 278 280 274 247 220 223 221 229 215 217 233 242 230 211 198 201
180 182 183 182 173 182 183 192 184 182 194 179 178 140 234 284 304 286 314 339 295 327 320 308 293 262 257 267 259 248 226 215 211 211 230 243 216 230 236 234 245 257 204
185 186 186 187 182 189 178 189 196 200 199 169 191 133 243 273 282 244 292 293 315 289 274 292 294 297 304 306 296 271 239 200 203 211 217 225 240 232 228 225 242 241 260
190 190 189 188 186 190 187 187 185 188 209 192 194 176 198 255 274 312 306 302 303 280 274 276 279 283 305 316 340 295 290 299 268 196 217 227 239 245 242 237 236 242 246
190 187 186 184 185 185 188 193 198 204 206 201 223 177 204 222 266 281 295 304 297 294 284 265 283 282 278 277 218 256 290 320 294 260 217 214 233 237 244 253 250 238 240
184 183 182 180 182 184 190 191 205 215 208 204 217 187 253 224 248 270 280 287 283 282 292 298 291 282 270 277 276 256 239 236 251 270 274 266 240 230 237 245 255 254 246
176 180 180 178 182 185 190 194 204 212 220 227 243 246 245 238 243 252 266 276 275 293 284 275 275 259 278 292 286 268 255 260 262 260 265 266 267 258 255 259 260 255 255